EW9216 Weather Reports


Display with metric or nautical units.
time (UTC)temp
F
wind
direction
speed
MPH
gust
MPH
rain 1hr
in
rain 24hr
in
rain mn
in
humidity
%
barometer
mb
20260507203110 85 360 1.0 11.0 0.00 0.00 0.00 20 1009.2
20260507201611 83 360 5.0 14.0 0.00 0.00 0.00 22 1009.4
20260507200103 83 360 8.0 14.0 0.00 0.00 0.00 23 1009.4
20260507194556 83 360 5.0 14.0 0.00 0.00 0.00 22 1009.6
20260507193051 83 360 0.0 11.0 0.00 0.00 0.00 23 1009.8
20260507191551 82 360 3.0 14.0 0.00 0.00 0.00 24 1010.0
20260507190046 81 360 2.0 14.0 0.00 0.00 0.00 26 1010.1
20260507184543 81 360 0.0 12.0 0.00 0.00 0.00 27 1010.2
20260507183040 80 230 0.0 8.0 0.00 0.00 0.00 29 1010.3
20260507181537 79 360 0.0 8.0 0.00 0.00 0.00 30 1010.5
20260507180042 78 360 0.0 4.0 0.00 0.00 0.00 31 1010.6
20260507174530 78 203 0.0 5.0 0.00 0.00 0.00 30 1010.8
20260507173030 77 360 0.0 1.0 0.00 0.00 0.00 30 1010.8
20260507171522 77 360 0.0 8.0 0.00 0.00 0.00 31 1010.8
20260507170058 76 360 0.0 0.0 0.00 0.00 0.00 33 1010.9
20260507164553 75 360 0.0 1.0 0.00 0.00 0.00 35 1011.0
20260507163052 75 360 0.0 4.0 0.00 0.00 0.00 39 1011.1
20260507161547 75 360 0.0 4.0 0.00 0.00 0.00 39 1011.1
20260507160043 74 209 0.0 0.0 0.00 0.00 0.00 39 1011.1
20260507154537 73 360 0.0 1.0 0.00 0.00 0.00 41 1011.1
20260507153035 73 360 0.0 1.0 0.00 0.00 0.00 42 1011.1
20260507151529 72 360 0.0 0.0 0.00 0.00 0.00 43 1011.1
20260507150026 71 17 0.0 0.0 0.00 0.00 0.00 43 1011.1
20260507144523 71 360 0.0 0.0 0.00 0.00 0.00 42 1011.2
20260507143025 70 360 0.0 0.0 0.00 0.00 0.00 43 1011.2
20260507141516 69 360 0.0 0.0 0.00 0.00 0.00 45 1011.2
20260507140023 67 360 0.0 0.0 0.00 0.00 0.00 48 1011.1
20260507134507 65 360 0.0 0.0 0.00 0.00 0.00 52 1011.0
20260507133003 63 360 0.0 0.0 0.00 0.00 0.00 54 1010.9
20260507131603 62 360 0.0 0.0 0.00 0.00 0.00 56 1010.7
20260507130055 61 360 0.0 0.0 0.00 0.00 0.00 58 1010.5
20260507124555 60 360 0.0 0.0 0.00 0.00 0.00 58 1010.6
20260507123054 60 360 0.0 0.0 0.00 0.00 0.00 57 1010.4
20260507121551 60 360 0.0 0.0 0.00 0.00 0.00 57 1010.2
20260507120052 59 360 0.0 0.0 0.00 0.00 0.00 56 1010.2
20260507114549 60 360 0.0 0.0 0.00 0.00 0.00 56 1010.3
20260507113048 60 360 0.0 0.0 0.00 0.00 0.00 56 1010.4
20260507111548 60 360 0.0 0.0 0.00 0.00 0.00 55 1010.4
20260507110051 60 360 0.0 0.0 0.00 0.00 0.00 56 1010.4
20260507104545 60 360 0.0 0.0 0.00 0.00 0.00 56 1010.3
20260507103043 61 360 0.0 0.0 0.00 0.00 0.00 56 1010.2
20260507101558 61 360 0.0 0.0 0.00 0.00 0.00 56 1010.4
20260507100039 61 360 0.0 0.0 0.00 0.00 0.00 56 1010.5
20260507094541 62 360 0.0 0.0 0.00 0.00 0.00 55 1010.4
20260507093037 62 360 0.0 0.0 0.00 0.00 0.00 55 1010.5
20260507091551 62 360 0.0 0.0 0.00 0.00 0.00 54 1010.5
20260507090032 64 360 0.0 0.0 0.00 0.00 0.00 53 1010.4
20260507084528 65 360 0.0 0.0 0.00 0.00 0.00 52 1010.5
20260507083025 66 360 0.0 0.0 0.00 0.00 0.00 51 1010.6
20260507081527 67 360 0.0 0.0 0.00 0.00 0.00 51 1010.7
20260507080020 67 360 0.0 0.0 0.00 0.00 0.00 51 1010.7
20260507074517 68 360 0.0 0.0 0.00 0.00 0.00 50 1010.9
20260507073014 68 360 0.0 0.0 0.00 0.00 0.00 49 1010.9
20260507071512 69 360 0.0 0.0 0.00 0.00 0.00 48 1011.0
20260507070012 69 360 0.0 0.0 0.00 0.00 0.00 48 1011.0
20260507064513 70 360 0.0 0.0 0.00 0.00 0.00 47 1011.0
20260507063008 70 360 0.0 0.0 0.00 0.00 0.00 46 1010.9
20260507061525 70 360 0.0 0.0 0.00 0.00 0.00 48 1010.9
20260507060007 70 360 0.0 0.0 0.00 0.00 0.00 46 1010.9
20260507054507 71 360 0.0 0.0 0.00 0.00 0.00 45 1010.9
20260507053006 72 360 0.0 0.0 0.00 0.00 0.00 45 1010.8
20260507051507 72 360 0.0 1.0 0.00 0.00 0.00 44 1010.8
20260507050009 72 360 0.0 2.0 0.00 0.00 0.00 42 1010.8
20260507044506 73 360 0.0 13.0 0.00 0.00 0.00 40 1010.6
20260507043004 73 360 1.0 11.0 0.00 0.00 0.00 39 1010.4
20260507041504 74 360 0.0 8.0 0.00 0.00 0.00 38 1010.3
20260507040004 74 360 0.0 12.0 0.00 0.00 0.00 37 1010.3
20260507034503 74 360 0.0 9.0 0.00 0.00 0.00 36 1010.2
20260507033008 75 360 1.0 9.0 0.00 0.00 0.00 35 1010.0
20260507031503 76 360 1.0 12.0 0.00 0.00 0.00 34 1009.9
20260507030002 77 360 2.0 15.0 0.00 0.00 0.00 33 1009.7
20260507024501 77 360 4.0 17.0 0.00 0.00 0.00 33 1009.6
20260507023002 78 360 6.0 17.0 0.00 0.00 0.00 33 1009.4
20260507021618 79 360 3.0 16.0 0.00 0.00 0.00 33 1009.3
20260507020107 80 360 2.0 11.0 0.00 0.00 0.00 31 1009.0
20260507014615 81 360 3.0 13.0 0.00 0.00 0.00 29 1009.0
20260507013058 82 360 2.0 14.0 0.00 0.00 0.00 27 1008.9
20260507011557 84 360 1.0 12.0 0.00 0.00 0.00 17 1008.9
20260507010108 84 360 0.0 4.0 0.00 0.00 0.00 16 1008.9
20260507004556 85 360 6.0 11.0 0.00 0.00 0.00 15 1008.8
20260507003055 85 360 0.0 8.0 0.00 0.00 0.00 15 1008.8
20260507001605 85 360 0.0 11.0 0.00 0.00 0.00 15 1008.7
20260507000055 85 360 0.0 10.0 0.00 0.00 0.00 15 1008.7
20260506234555 85 360 0.0 12.0 0.00 0.00 0.00 14 1008.7
20260506233056 86 360 0.0 11.0 0.00 0.00 0.00 15 1008.7
20260506231553 85 244 0.0 13.0 0.00 0.00 0.00 14 1008.8
20260506230100 86 360 0.0 9.0 0.00 0.00 0.00 14 1008.8
20260506224550 86 360 2.0 12.0 0.00 0.00 0.00 15 1009.0
20260506223049 86 256 0.0 10.0 0.00 0.00 0.00 15 1009.0
20260506221549 85 209 1.0 19.0 0.00 0.00 0.00 16 1009.1
20260506220051 86 255 8.0 12.0 0.00 0.00 0.00 15 1009.1
20260506214546 86 360 0.0 1.0 0.00 0.00 0.00 15 1009.3
20260506213043 85 233 3.0 11.0 0.00 0.00 0.00 14 1009.6
20260506211542 86 198 0.0 12.0 0.00 0.00 0.00 14 1009.8
20260506210043 85 360 1.0 9.0 0.00 0.00 0.00 15 1010.0
20260506204537 85 360 5.0 13.0 0.00 0.00 0.00 17 1010.0